Theta_e
343 344 348 350 350 350 350 349 350 348 347 346 345 345 344 344 345 347 346 346 346 346 346 345 346 346 346 346 347 347 347 348 348 347 346 346 347 347 346 346 345 345 345 345 345 346 346 347 346 345 345 345 346 346 346 346 345 345 344 344 344 341 340 339 340 340 341 341 341 341 341 341 341 340 340 339 338 338 339 338 340 335 336 337 340
342 345 349 350 351 351 350 350 349 348 347 346 346 345 344 345 346 347 347 347 346 346 346 346 346 346 346 347 347 348 347 346 346 347 347 347 347 346 346 347 346 346 345 345 345 346 347 346 346 346 346 346 345 345 345 345 345 345 344 344 344 342 342 341 340 339 340 340 340 340 339 340 340 339 339 338 338 338 338 337 339 337 335 337 338
344 345 348 350 351 351 350 349 350 349 348 346 347 345 345 345 346 347 347 347 347 347 347 346 346 346 347 348 347 347 347 347 346 347 346 347 346 345 346 347 347 346 346 345 344 345 346 346 346 346 346 345 345 343 345 343 344 344 343 344 344 344 344 345 345 344 341 339 338 339 338 338 337 338 338 337 337 336 337 337 338 338 335 335 335
343 344 348 348 350 350 350 349 349 349 348 347 346 345 345 345 347 347 347 347 347 347 347 347 347 347 347 347 348 347 347 347 347 347 346 346 346 345 346 346 346 347 346 346 345 345 345 345 345 344 344 344 343 343 342 341 342 343 343 343 343 343 344 344 343 343 342 342 341 340 337 337 338 338 339 338 337 336 338 335 336 336 335 334 333
343 343 346 348 351 351 350 350 349 349 348 347 345 345 346 346 348 348 348 348 348 347 346 346 347 347 348 348 348 347 347 347 347 346 346 346 346 345 343 343 346 346 345 345 344 344 344 344 343 342 342 341 342 341 340 340 340 341 343 342 342 344 343 343 342 342 341 340 341 340 336 335 336 338 338 337 337 336 338 336 336 336 335 335 335
343 344 346 345 347 350 350 350 349 349 349 347 346 346 345 346 349 349 348 348 347 346 347 346 347 347 347 347 347 347 346 346 347 347 347 346 345 344 342 341 341 345 345 344 344 343 342 342 341 341 341 340 339 340 340 340 341 341 341 342 342 343 343 342 342 341 340 339 340 336 335 335 332 333 336 336 335 336 335 335 336 336 336 335 334
343 345 346 344 346 349 349 349 349 349 348 347 346 346 345 345 345 348 348 347 347 346 346 347 347 346 346 346 347 347 347 347 347 347 346 345 344 342 341 340 339 339 341 344 342 342 341 341 341 340 339 339 339 339 339 339 340 341 341 341 342 343 342 342 341 340 340 341 339 338 337 338 337 337 338 339 339 337 336 336 337 337 337 336 339
344 345 346 344 346 348 348 349 349 349 349 347 346 345 344 345 345 346 347 346 346 346 347 346 346 346 346 346 346 346 347 346 346 346 345 344 343 341 340 339 338 337 336 339 343 342 341 340 339 339 339 338 338 339 339 339 340 340 340 342 342 342 342 341 340 340 339 337 339 339 339 339 340 339 339 338 338 336 335 335 335 336 336 335 336
344 345 346 344 348 347 347 348 349 349 349 348 346 345 344 343 344 344 346 346 345 345 346 346 345 345 346 346 345 345 345 345 344 344 343 341 341 340 338 337 337 336 335 338 342 341 340 339 339 338 338 338 339 339 339 340 340 339 340 342 342 341 340 339 339 339 338 338 337 338 338 339 340 340 339 337 336 337 338 336 336 334 334 334 334
344 345 346 345 348 346 346 347 349 348 348 348 346 346 343 342 343 344 344 345 345 345 345 345 345 345 345 345 344 344 344 343 343 342 342 340 339 338 337 336 336 336 334 337 342 341 340 340 338 338 338 339 339 338 340 341 340 339 339 341 341 341 340 338 337 340 337 337 337 337 341 341 339 338 338 337 337 337 336 334 337 336 335 333 334
344 344 345 345 350 344 345 347 348 349 349 348 347 346 344 341 341 343 343 345 345 344 344 344 345 345 345 344 343 342 343 342 342 341 340 338 338 337 336 336 334 335 335 335 342 341 341 339 339 338 339 339 338 338 339 340 341 340 340 341 341 340 338 337 338 336 338 337 337 337 338 339 337 337 336 335 333 334 334 334 335 334 334 334 334
343 344 345 345 348 344 345 346 348 348 347 348 347 346 343 342 341 342 342 342 343 344 343 343 344 345 344 343 343 343 342 341 340 339 338 337 336 335 335 334 334 334 334 334 337 341 340 339 339 338 338 338 338 338 338 339 339 339 338 339 339 338 337 335 335 336 338 337 337 337 336 333 335 337 335 334 333 334 335 336 336 336 335 333 334
342 343 345 346 350 344 344 345 346 347 347 347 347 345 343 343 342 341 341 340 341 341 340 340 339 340 343 343 343 345 341 341 339 338 337 336 335 334 334 334 334 334 334 335 334 335 339 339 338 338 338 337 337 337 337 337 337 337 338 338 337 335 334 333 335 336 336 337 336 337 335 336 337 341 334 335 337 337 337 338 337 336 335 334 333
342 343 343 345 348 345 343 343 344 345 346 347 347 345 344 343 342 342 340 339 340 340 340 339 338 338 338 338 343 343 341 340 338 337 336 335 334 332 334 334 334 334 334 334 334 335 335 338 338 338 338 337 336 336 336 335 335 335 334 334 333 332 331 334 336 337 337 337 337 336 337 336 337 341 337 336 336 336 336 337 337 337 336 334 334
341 344 344 345 348 349 344 342 343 343 345 346 346 345 344 343 343 342 340 339 340 340 339 338 337 336 337 337 337 337 341 342 342 339 338 338 333 333 334 334 334 334 335 333 335 335 334 335 339 338 337 336 335 336 336 335 334 333 331 330 328 328 326 334 335 336 335 336 336 337 338 337 339 340 339 337 337 337 335 334 336 337 337 335 334
343 344 344 343 348 349 349 345 341 341 342 342 343 343 344 344 343 342 340 340 340 340 339 337 337 336 336 338 338 336 337 341 341 337 337 338 334 335 335 334 335 333 335 335 335 335 334 334 335 336 335 335 335 335 335 335 334 332 331 330 329 327 325 328 334 335 334 335 336 337 337 337 337 337 340 337 337 336 336 335 335 334 336 336 335
344 344 342 343 347 348 348 348 345 339 339 340 340 341 343 343 342 342 342 341 341 341 341 340 339 337 338 340 341 339 339 338 339 338 337 338 336 336 337 334 334 334 334 335 335 335 334 334 333 334 335 336 334 334 334 334 334 332 330 329 328 326 325 326 332 332 331 333 333 333 334 335 334 335 337 338 337 335 336 336 335 334 335 335 335
344 343 342 343 346 347 347 348 347 346 347 342 339 339 340 341 341 341 341 340 340 340 339 338 340 338 339 340 339 340 340 338 337 337 337 337 334 333 334 336 334 334 334 333 333 333 334 333 334 332 333 334 333 333 333 333 335 333 330 328 327 325 324 324 331 330 330 327 331 332 332 330 330 333 335 336 336 334 335 334 334 335 334 334 334
342 341 341 343 345 346 346 348 348 347 347 347 347 344 337 339 339 339 339 338 338 337 336 337 338 336 338 337 336 336 337 336 336 335 334 335 335 333 332 335 334 334 334 334 334 333 333 333 333 332 331 332 332 332 332 333 334 333 330 329 326 324 321 327 330 330 329 329 330 330 330 328 329 331 333 334 335 335 336 336 335 335 335 334 334
341 341 340 343 345 345 346 346 347 346 346 345 346 346 339 336 336 337 336 336 335 334 333 333 334 332 334 333 333 335 335 337 334 336 333 333 334 331 329 332 337 335 333 332 332 332 332 333 332 331 331 331 330 331 331 332 334 333 331 326 324 322 331 330 330 329 328 328 327 328 329 328 329 330 331 332 333 335 336 335 335 335 334 335 335
339 340 341 341 344 345 345 346 346 346 346 345 345 345 344 336 335 335 334 333 334 332 330 328 329 328 330 329 331 332 332 332 334 333 332 336 326 325 327 330 333 337 335 333 335 335 332 332 331 331 330 331 334 333 333 334 334 333 330 325 322 331 331 330 330 328 329 328 328 329 326 329 329 329 330 331 332 333 334 335 336 336 335 335 334
337 338 340 341 342 343 345 345 345 345 345 345 344 344 345 340 343 342 341 338 333 331 334 335 336 337 329 334 334 332 332 335 332 332 332 334 331 323 326 328 330 333 336 337 336 336 332 332 331 331 331 333 332 332 333 330 329 330 326 322 332 330 330 329 329 329 329 328 328 329 324 327 330 331 330 331 332 333 333 333 334 335 335 335 335
336 337 338 339 341 342 344 343 344 346 346 345 345 344 344 343 343 342 342 336 338 336 336 333 335 336 334 335 333 333 332 333 332 332 332 326 329 323 325 327 329 330 334 335 335 337 337 335 334 335 334 333 334 333 333 333 333 323 323 331 330 330 329 329 329 328 329 329 328 325 324 325 329 332 332 332 332 332 333 333 333 332 335 335 335
335 337 338 339 340 341 343 344 344 345 345 343 345 343 343 343 342 342 342 341 340 338 337 336 334 336 334 334 332 334 333 332 334 334 335 333 332 323 323 324 325 327 328 334 332 333 334 332 333 333 333 332 334 332 331 333 331 332 331 329 329 329 329 328 328 328 328 328 328 325 325 326 327 329 331 333 333 332 332 333 333 332 332 333 335
336 337 338 338 339 340 342 344 345 345 344 343 342 343 343 343 342 342 341 340 340 339 337 336 337 337 335 333 334 334 333 333 333 331 331 331 331 331 330 330 331 332 327 332 333 334 331 332 333 331 332 331 330 330 330 329 330 329 328 328 328 329 328 329 328 328 328 328 328 325 325 326 327 329 331 333 333 333 333 333 333 333 334 334 333
337 335 337 339 339 340 342 344 343 344 343 342 342 342 342 341 341 341 340 340 339 338 337 336 336 337 336 334 334 333 332 332 333 332 331 330 330 330 329 329 330 330 331 331 330 330 330 329 329 330 330 330 328 329 329 328 328 328 328 329 328 328 328 328 328 328 328 328 329 325 324 324 325 328 330 331 333 333 333 333 333 334 333 334 335
335 335 337 338 339 339 342 344 342 343 343 343 343 342 341 341 341 340 340 339 339 338 336 336 335 335 336 335 333 332 330 330 331 331 330 331 330 330 329 329 329 329 330 329 330 329 328 329 329 329 330 330 330 329 329 329 329 328 328 328 328 327 327 327 327 327 328 328 327 324 324 325 326 328 329 331 333 333 333 333 333 334 334 334 334
335 335 336 337 338 338 341 343 343 341 343 342 341 341 340 340 340 339 339 337 337 337 334 335 336 335 335 334 332 332 331 331 332 332 331 331 331 331 331 329 329 329 330 330 329 329 328 328 329 329 329 330 329 329 328 329 329 330 329 329 329 328 328 328 327 328 328 328 329 325 323 325 325 326 328 330 332 333 334 334 333 333 334 334 334
333 335 336 336 337 339 340 341 343 341 342 341 340 340 340 340 339 339 338 335 337 336 334 335 334 334 335 335 334 331 330 331 331 332 332 332 332 332 330 330 329 330 330 329 330 329 328 327 328 328 328 328 328 328 327 328 329 329 328 328 328 328 328 328 328 328 329 328 329 327 322 324 324 325 328 330 331 333 335 335 334 335 335 335 335
334 334 335 336 338 339 339 339 341 342 341 341 340 340 339 339 339 338 338 337 337 335 335 334 334 334 333 335 334 332 331 330 331 331 331 331 331 332 331 330 329 329 330 329 329 328 328 328 329 329 328 328 327 327 327 327 328 329 329 328 328 328 328 328 328 328 329 329 329 329 321 322 323 324 326 328 329 332 333 335 336 335 335 336 336
334 334 335 336 336 337 337 340 341 341 341 340 340 339 339 338 339 339 338 337 338 335 335 334 334 334 334 335 335 334 334 332 331 331 331 331 331 331 331 331 331 332 332 331 332 331 330 329 329 329 328 327 327 327 326 326 328 328 329 328 329 329 328 328 328 329 328 329 330 331 331 320 322 323 325 327 329 331 332 334 335 336 336 336 336
333 333 334 336 336 336 337 339 339 341 341 340 338 338 338 338 338 339 337 338 338 334 334 334 332 334 335 335 335 335 334 333 333 333 333 331 331 330 331 331 331 331 332 332 331 332 331 331 331 331 330 328 327 327 328 326 326 327 328 328 329 329 328 329 329 329 328 329 330 331 332 331 320 321 323 325 327 329 331 332 334 335 336 337 336
334 335 335 336 335 336 337 337 339 339 340 340 339 339 338 338 337 337 337 337 335 334 333 333 334 334 334 335 335 335 334 333 333 333 332 332 331 330 330 330 331 331 331 332 332 332 331 330 330 331 329 329 327 327 328 326 325 326 327 327 328 329 330 329 328 328 329 330 330 331 332 332 332 321 320 322 323 326 329 331 333 334 335 336 335
333 334 335 334 335 336 337 337 338 338 338 339 339 339 337 337 337 337 336 335 334 333 332 334 333 334 334 334 335 334 333 333 334 333 333 332 331 331 330 330 330 331 331 331 330 330 329 328 328 328 324 326 325 326 325 325 325 326 327 327 328 329 329 329 328 329 329 330 330 331 331 331 331 332 331 320 319 322 326 328 330 332 333 334 334
333 333 333 334 334 335 336 336 337 338 337 338 338 338 336 336 336 336 336 335 334 333 332 333 333 333 334 334 334 333 333 333 334 333 333 332 331 330 330 330 330 330 329 330 329 329 329 328 328 326 326 325 325 325 325 324 324 325 326 327 327 327 329 328 329 329 329 331 331 332 331 331 331 331 331 331 323 320 322 325 328 330 331 332 332
333 333 334 334 333 334 335 335 336 336 337 336 337 338 336 335 335 332 335 335 334 333 332 332 332 332 333 333 334 334 333 333 334 334 332 332 331 330 330 330 331 330 329 329 328 327 328 328 328 328 326 325 325 325 325 324 325 326 326 326 327 327 328 329 329 329 330 330 331 331 331 331 331 331 326 330 330 328 322 323 325 328 328 329 330
334 333 333 333 333 333 333 334 334 335 336 337 337 337 336 336 335 334 334 334 333 333 332 332 331 332 332 332 333 333 333 333 333 333 332 332 332 331 331 331 331 330 329 328 327 327 327 327 327 327 327 325 325 325 325 325 326 326 327 327 327 327 327 329 329 329 331 330 331 331 331 331 330 321 329 328 329 329 324 319 323 325 325 325 326
335 334 334 333 332 333 332 332 334 335 335 335 335 335 336 335 335 335 333 333 334 333 333 332 332 332 332 331 332 333 332 333 333 333 332 332 332 332 332 331 331 330 329 328 327 328 327 326 325 326 326 326 325 325 325 325 326 326 326 326 326 326 327 329 330 328 329 329 330 330 331 331 330 330 329 330 329 329 329 323 319 321 322 321 322
335 335 335 335 335 333 331 331 331 333 334 335 334 334 334 334 334 333 333 333 333 333 332 332 332 332 332 332 332 332 331 332 332 332 331 331 331 332 331 331 331 329 328 328 327 327 326 325 325 325 326 326 325 326 326 326 326 326 325 325 326 326 327 328 329 329 329 330 330 328 331 330 330 330 329 329 329 329 329 329 329 329 327 317 319
334 334 335 335 335 335 333 331 331 331 332 332 333 331 332 330 329 330 329 329 330 330 331 331 333 332 333 332 332 332 332 331 332 332 331 330 330 330 331 331 330 329 328 326 326 326 325 325 325 325 325 325 325 325 326 325 324 324 322 324 325 326 326 327 329 329 329 329 329 329 328 329 329 329 329 329 329 329 329 329 325 328 329 324 317
333 334 334 334 335 334 335 332 331 332 331 329 329 328 327 327 327 327 327 328 328 330 331 331 331 332 333 333 333 332 331 331 331 332 331 328 330 331 330 330 330 329 328 327 327 327 327 327 325 325 324 324 324 325 324 324 320 320 322 323 325 328 327 328 328 329 329 329 329 328 328 328 328 329 329 329 328 329 329 329 328 329 328 329 327
331 332 333 334 334 335 334 334 335 332 331 330 330 329 329 328 327 328 329 329 329 329 329 331 331 333 333 334 333 333 333 332 330 330 330 330 329 329 330 329 329 328 328 328 327 325 326 326 325 324 325 323 323 325 325 323 318 317 319 321 324 328 329 329 328 327 328 328 328 328 328 327 327 328 328 328 328 328 328 328 328 328 329 329 328
332 331 332 333 334 334 335 335 336 335 333 331 331 330 331 330 330 331 331 331 333 333 332 332 333 333 334 334 335 334 334 334 333 330 330 329 329 329 329 329 329 328 326 326 326 326 326 325 325 323 323 323 324 326 324 323 321 323 322 319 318 319 323 321 323 323 324 326 328 327 327 326 327 328 327 327 327 328 328 328 328 328 328 328 328
330 332 331 331 332 332 334 334 335 336 336 335 331 333 332 333 333 332 333 333 332 334 334 334 334 334 334 335 336 336 335 334 333 331 330 330 330 329 330 330 329 328 327 326 326 326 326 326 325 325 326 322 320 321 324 324 324 323 317 318 319 317 315 321 320 325 326 324 324 324 325 325 326 327 326 326 327 328 328 328 328 328 328 328 328
328 328 329 330 331 331 332 334 334 335 336 336 335 335 335 333 333 333 333 333 334 333 333 333 334 334 334 335 335 336 335 334 334 333 330 330 331 331 330 330 329 328 328 327 326 326 327 327 327 325 324 324 324 322 322 323 324 327 323 318 316 315 316 321 321 323 321 320 322 323 324 325 325 324 325 326 327 327 327 327 328 328 328 328 328
326 328 330 331 331 331 332 333 333 334 335 336 336 335 334 333 333 330 327 329 329 330 329 330 332 333 333 336 338 337 336 335 335 334 332 330 331 331 331 330 330 329 328 328 328 328 327 327 327 327 326 326 326 325 324 322 324 326 327 326 324 321 322 322 319 316 320 325 327 325 325 324 324 325 326 326 327 326 326 326 327 327 328 328 328
328 330 330 331 331 331 331 331 332 332 334 335 336 334 333 333 333 332 331 331 329 330 333 334 334 335 336 335 336 338 337 336 335 335 334 332 331 331 331 331 331 330 329 328 328 328 328 328 328 327 327 326 326 323 323 324 321 323 325 325 325 326 326 322 318 322 319 323 322 322 322 324 325 326 327 326 327 326 326 327 327 327 328 328 328
326 328 329 329 329 329 330 330 331 331 332 334 334 335 333 332 332 332 331 331 331 330 332 333 335 335 335 335 336 336 337 337 337 336 335 333 331 332 332 331 331 331 330 328 328 329 329 329 328 328 327 327 326 324 323 324 319 319 322 323 323 324 325 324 324 321 320 318 320 323 325 325 326 327 326 326 325 326 326 327 327 327 327 328 328
323 325 326 328 328 329 329 330 331 331 331 332 332 333 333 333 332 332 331 331 332 332 333 333 333 334 333 334 335 335 336 337 337 337 337 336 332 332 332 332 331 331 330 330 330 329 329 329 328 327 326 326 326 326 325 324 323 321 320 320 322 321 322 323 323 323 318 317 317 320 321 325 324 324 324 325 326 326 326 327 327 327 327 327 328
323 324 326 327 328 328 326 324 325 329 331 330 330 331 333 332 332 332 331 331 332 331 332 331 331 333 332 332 333 334 334 334 336 336 336 336 335 333 332 332 332 331 329 331 330 329 329 329 329 328 327 325 326 326 324 325 326 325 324 322 319 319 320 320 320 320 320 319 316 318 321 320 319 323 325 324 325 325 326 327 327 327 327 327 328
311 315 319 323 326 325 325 325 325 327 329 331 331 330 331 332 331 331 331 330 331 331 330 329 330 331 330 331 331 332 332 333 333 334 335 335 335 334 333 333 333 331 330 331 331 330 330 329 329 330 327 326 326 326 324 325 325 325 325 323 322 321 319 318 318 319 318 317 316 315 317 318 318 318 323 325 324 325 325 326 326 326 327 328 328
Wind_Speed
14 19 17 20 21 20 20 20 20 19 19 17 17 17 17 16 15 15 16 16 16 17 17 17 16 16 16 15 15 14 13 12 12 12 11 11 14 14 15 14 14 13 14 14 14 15 15 14 14 12 13 14 15 14 14 15 12 11 12 13 14 14 15 16 14 13 13 13 13 13 12 12 12 12 11 11 10 9 7 7 6 8 8 10 12
20 19 16 19 20 19 20 20 21 19 19 18 17 17 16 16 15 15 15 15 15 16 16 17 17 16 16 15 14 14 13 14 14 13 13 13 15 15 15 15 14 14 14 14 14 15 15 15 15 15 15 15 13 14 13 13 13 13 13 12 13 15 14 15 14 13 13 13 14 14 13 13 12 11 11 10 9 9 8 9 8 4 7 9 8
17 20 17 19 19 19 20 21 20 20 19 18 17 17 16 16 15 15 15 15 14 15 16 16 16 16 15 14 14 14 14 14 15 14 14 13 13 15 15 16 15 15 15 15 14 14 15 15 15 15 15 15 14 12 13 12 13 13 12 12 12 13 14 13 13 12 12 13 13 14 13 13 12 11 11 10 9 8 6 8 9 8 7 10 10
18 18 17 18 19 18 19 20 20 20 19 19 18 17 15 16 16 15 15 15 14 14 15 15 15 15 14 14 14 15 14 14 15 15 14 14 14 15 16 15 15 16 15 16 15 14 14 14 14 14 15 14 13 13 11 11 11 13 11 11 12 12 14 13 13 12 9 7 5 8 7 8 9 10 10 10 9 8 3 6 9 10 10 10 9
17 18 17 18 19 18 18 19 20 20 19 19 18 17 16 16 16 16 15 15 15 14 14 14 14 14 15 14 14 14 15 15 15 15 15 14 15 15 14 14 15 15 15 14 14 15 14 14 14 13 13 12 13 11 11 11 12 11 11 11 11 13 13 13 12 10 9 5 4 2 7 8 7 9 9 10 9 7 6 8 8 9 9 9 9
16 17 16 18 18 19 18 18 20 20 20 18 18 17 18 15 17 15 15 15 15 14 14 14 14 14 15 16 15 15 15 15 16 17 16 14 14 14 13 12 11 14 16 14 13 12 12 13 14 15 13 12 11 10 10 12 11 11 11 10 10 12 12 12 10 9 7 3 2 5 5 6 7 7 9 9 9 5 7 6 6 6 7 7 7
17 15 16 17 16 19 17 19 20 20 20 18 18 18 18 14 14 16 15 16 16 15 15 15 14 14 15 15 16 16 16 17 17 16 15 14 13 12 12 12 11 8 11 17 14 13 12 12 13 13 13 12 10 9 10 11 11 11 10 10 10 10 11 10 9 6 3 5 4 4 5 6 6 5 8 7 6 6 5 6 5 6 6 7 10
14 13 16 15 16 19 17 19 19 20 20 18 18 17 17 15 12 14 15 15 16 16 16 15 16 16 16 16 15 16 16 16 16 16 15 13 12 12 11 11 10 9 7 11 15 14 12 11 11 11 11 10 9 9 9 10 10 11 10 10 10 9 9 9 7 4 5 2 3 4 4 4 5 5 7 7 6 5 6 5 5 5 6 6 7
15 16 15 15 15 21 16 18 18 20 21 20 18 17 16 15 14 13 15 14 15 15 16 17 15 17 17 17 17 16 15 15 15 15 13 11 10 11 10 10 10 9 8 11 13 13 12 11 11 11 11 10 9 9 9 9 9 10 10 10 10 9 8 8 5 3 3 4 4 4 4 5 4 5 7 6 6 6 5 4 7 6 6 6 5
15 17 15 14 15 20 16 17 17 20 21 20 19 18 17 15 15 13 13 15 13 15 15 15 15 15 14 15 14 13 13 12 12 12 12 11 11 9 8 7 9 10 8 11 14 14 12 11 11 11 12 10 10 9 9 8 8 8 9 9 9 8 8 6 2 2 3 3 4 4 5 8 4 4 7 6 6 5 6 9 9 8 5 3 5
18 16 15 13 17 19 18 17 16 19 21 20 19 18 17 16 15 14 13 14 15 14 14 15 17 15 13 12 12 11 11 12 13 12 11 9 9 8 5 7 6 9 10 8 14 13 13 12 12 11 12 11 11 10 9 9 8 8 9 8 7 7 6 4 7 3 3 3 3 4 5 5 2 3 6 6 5 5 5 4 4 4 4 3 3
18 16 14 13 16 18 18 18 16 19 21 20 20 18 17 16 15 15 14 13 12 13 13 13 14 16 15 13 10 11 12 10 11 11 10 9 7 6 5 5 7 8 9 8 11 14 12 12 12 12 12 11 11 10 10 10 9 8 8 7 6 6 4 1 3 3 3 2 3 2 2 2 3 6 4 4 4 5 4 3 3 3 3 2 3
18 16 15 13 17 16 17 18 16 18 18 18 18 17 17 16 16 15 14 13 13 11 10 9 7 7 10 12 11 10 15 13 11 10 10 9 7 8 6 7 8 8 10 9 9 9 13 12 12 12 11 11 11 10 11 11 9 8 7 6 6 6 4 3 1 2 2 2 2 1 2 2 1 7 1 2 3 3 3 2 2 1 2 3 2
18 16 15 14 15 15 16 16 16 17 17 17 16 17 17 17 17 15 13 13 12 12 10 10 7 7 7 6 8 8 14 11 9 8 10 9 7 7 9 9 9 9 9 10 10 9 9 13 12 12 11 10 10 10 10 10 11 10 9 8 7 5 3 2 1 2 2 2 1 2 1 0 2 7 4 2 2 1 0 2 2 1 2 1 3
17 17 15 15 15 16 16 15 15 16 16 16 16 16 17 17 17 16 14 14 14 13 12 10 9 7 6 6 6 6 7 6 6 11 9 9 9 10 10 10 9 9 10 9 10 9 8 11 14 13 11 10 10 9 9 9 10 10 10 9 8 5 4 2 2 2 2 1 1 0 0 2 7 6 5 1 1 3 2 1 2 4 2 1 0
17 16 16 15 16 16 14 14 14 15 15 15 15 16 16 16 16 16 15 14 14 13 12 11 10 8 7 6 6 6 4 8 7 12 10 8 9 7 8 9 10 8 10 9 10 9 9 9 11 10 9 10 9 8 8 8 8 9 8 8 7 6 6 6 2 1 1 1 0 1 1 1 5 7 7 3 3 3 4 2 3 2 2 4 2
16 15 15 17 17 17 15 15 14 14 13 14 14 15 15 15 15 15 15 14 12 11 12 12 11 11 9 7 8 8 6 9 5 11 10 11 9 3 5 9 9 8 10 10 9 10 9 9 9 8 10 10 9 8 7 7 7 7 7 7 6 6 5 6 1 1 1 1 1 1 2 1 6 9 9 7 7 4 4 5 6 5 5 5 5
15 16 16 16 16 16 15 16 15 14 14 13 14 15 15 15 15 14 15 14 14 12 10 12 10 13 10 8 8 8 8 8 6 5 9 10 10 6 3 8 10 10 9 8 8 9 8 8 9 8 8 8 8 7 6 6 7 6 6 6 6 5 4 5 0 0 0 1 2 1 3 6 7 7 8 9 7 6 6 6 6 6 6 6 5
15 16 16 16 16 16 16 15 17 16 16 15 13 13 14 14 14 13 14 14 13 13 10 12 11 12 9 11 11 8 8 8 7 5 8 9 10 7 5 3 11 11 9 9 10 8 8 6 7 7 7 6 5 7 6 7 7 7 5 5 5 4 1 4 0 1 1 3 2 2 1 7 6 7 8 8 8 8 8 8 8 8 9 8 7
12 14 15 15 15 16 14 14 15 16 15 14 14 15 13 14 13 13 13 14 14 13 11 10 9 12 10 10 12 10 7 7 7 6 6 9 9 10 6 4 1 10 7 7 6 5 6 6 4 6 7 6 2 4 3 4 8 7 6 6 5 4 3 1 1 2 3 2 2 3 4 6 7 7 8 8 8 9 9 10 10 10 9 9 9
11 14 14 14 15 15 16 13 16 18 15 14 13 15 14 13 11 12 13 13 13 13 12 10 9 8 9 10 10 11 9 9 8 8 8 7 7 7 9 4 5 3 9 7 7 7 6 7 5 5 6 6 4 3 4 5 7 7 7 6 6 4 2 2 2 3 3 3 2 3 4 5 6 8 8 9 9 10 10 11 11 11 10 11 11
13 13 15 15 15 15 15 16 14 17 16 13 11 11 11 13 14 12 11 10 11 11 10 11 10 9 9 9 10 9 9 9 10 11 9 8 7 7 6 5 5 6 4 6 9 8 8 8 7 8 8 6 7 5 6 6 5 5 6 7 5 3 3 3 2 2 3 4 3 1 3 5 7 8 8 9 10 11 11 11 11 12 12 12 11
12 13 13 17 15 14 15 16 16 15 16 15 11 12 14 13 13 12 10 12 12 12 12 11 11 11 11 10 10 9 9 9 10 9 8 8 9 9 6 3 4 6 5 5 5 3 4 6 8 7 4 8 7 5 4 4 4 6 5 4 4 3 4 4 4 3 3 2 4 1 5 6 7 8 9 9 10 11 11 11 12 12 12 12 12
16 15 14 14 15 14 16 15 16 16 15 13 11 11 12 12 12 12 11 11 12 11 10 11 10 11 11 11 10 8 9 8 7 8 4 6 5 4 4 5 4 4 6 4 6 4 3 3 2 4 5 5 6 5 4 4 4 4 4 4 4 4 5 5 4 4 4 4 5 5 7 8 8 9 10 10 11 11 11 12 12 12 13 13 13
15 14 13 14 17 16 15 16 13 12 15 12 13 12 12 12 12 11 11 11 11 11 9 10 10 11 12 10 9 8 9 8 8 9 10 8 7 7 6 7 8 8 7 6 7 6 6 7 6 7 6 6 7 6 5 5 5 5 5 5 5 4 5 5 4 4 5 5 6 6 9 10 10 10 11 11 12 12 12 12 12 12 13 14 14
9 13 15 15 17 16 16 14 15 11 14 12 12 10 12 12 11 11 10 10 11 11 10 9 9 11 11 10 9 9 10 8 8 9 9 8 7 8 8 7 8 8 8 8 8 7 7 7 7 7 7 6 6 5 5 5 4 4 4 4 4 4 4 4 5 5 6 6 6 6 10 12 12 12 12 12 13 13 13 13 13 13 13 14 15
12 14 14 14 14 16 16 15 15 11 13 14 11 9 12 12 11 10 10 10 10 10 10 9 8 11 11 10 10 10 10 9 9 10 10 8 8 8 8 8 8 7 8 8 8 7 7 6 6 6 6 6 7 6 6 6 6 6 5 5 5 5 6 6 5 6 6 6 6 7 10 13 13 13 13 13 13 13 14 14 14 14 14 14 15
8 13 14 14 14 18 17 16 12 14 10 12 10 11 12 11 10 8 9 10 10 10 10 9 8 9 11 11 10 9 10 9 9 9 9 8 8 8 7 7 8 7 7 7 7 7 7 6 6 7 7 7 8 7 7 7 7 7 7 7 7 7 7 7 6 7 7 7 7 8 10 14 14 14 13 13 14 14 14 15 15 15 15 15 15
12 13 12 14 15 14 18 17 13 15 10 12 12 12 11 10 10 9 12 8 10 9 10 9 9 9 10 11 11 10 10 10 10 9 8 9 8 8 8 7 7 7 7 7 7 7 7 6 6 7 7 7 7 7 7 7 6 7 7 8 7 7 7 7 7 7 7 7 7 7 11 12 14 14 14 14 14 15 15 15 16 16 16 16 16
14 14 13 12 13 15 18 19 16 13 13 12 13 9 12 12 11 10 11 7 10 10 10 9 9 9 9 11 11 10 9 9 9 9 9 9 9 9 9 8 7 7 7 8 7 7 7 7 7 7 7 7 7 6 6 6 7 7 6 7 7 7 7 7 7 7 7 7 7 7 12 12 14 15 15 15 15 15 16 16 16 17 17 17 17
13 14 12 12 11 14 17 16 17 12 11 11 10 11 11 13 10 8 9 10 10 10 9 9 9 9 9 10 11 11 9 9 9 10 9 9 9 8 9 8 8 8 8 8 7 8 7 7 7 7 7 7 7 6 6 7 7 7 7 7 7 7 7 7 8 8 8 7 7 7 6 13 14 16 16 16 16 16 17 17 17 17 17 17 17
13 14 15 13 14 16 16 17 18 13 10 12 10 12 13 13 13 10 11 11 11 10 10 10 9 9 10 10 11 11 10 9 9 9 9 9 9 9 9 9 8 8 8 9 9 8 9 8 9 9 9 8 7 7 7 7 7 7 7 7 7 8 7 8 8 8 8 8 7 7 7 6 14 15 16 17 17 18 18 18 18 18 18 18 18
11 13 13 13 15 16 15 17 17 16 12 11 11 11 11 11 11 11 11 10 11 10 11 10 10 9 10 11 11 12 11 10 10 10 10 10 9 9 9 9 8 8 8 9 10 9 9 9 9 9 9 9 9 9 8 8 8 8 8 8 7 8 8 8 8 8 8 7 8 8 7 6 6 13 16 16 17 18 18 18 18 18 19 19 20
9 9 12 12 11 9 11 12 14 16 17 13 12 9 11 10 10 10 10 11 10 11 11 10 10 10 10 11 12 12 11 11 10 10 10 9 9 10 10 9 9 10 9 9 9 9 9 9 9 8 8 9 9 9 8 8 7 7 8 8 8 9 9 8 8 8 8 8 7 7 8 6 6 6 7 15 17 16 18 18 18 19 19 19 20
11 11 15 16 15 13 11 13 11 14 13 15 12 9 10 10 10 10 10 11 11 11 11 11 10 10 10 11 12 12 12 12 12 10 11 10 10 9 9 9 9 9 9 9 9 9 9 9 8 9 9 8 9 8 9 9 8 8 8 8 10 9 8 9 9 9 9 9 9 8 7 7 7 6 7 6 11 16 16 18 18 19 19 19 20
15 14 13 13 15 14 9 13 12 11 11 13 12 11 11 9 9 9 10 12 11 12 12 11 11 11 11 11 13 13 13 13 13 12 10 10 10 10 9 9 10 9 9 9 9 9 9 9 9 9 9 10 8 9 8 9 8 9 10 9 8 8 8 8 10 9 8 9 9 8 7 7 7 7 7 7 7 7 14 16 17 18 18 18 19
16 15 14 14 13 15 11 16 16 16 16 13 10 9 11 10 10 10 11 12 12 12 12 12 11 11 11 11 12 13 13 13 13 13 11 11 10 10 9 9 10 9 9 9 9 8 9 9 9 10 10 9 9 9 9 8 9 10 9 9 9 9 9 9 10 8 8 10 10 8 8 8 7 8 7 8 7 7 8 14 14 16 17 16 16
14 16 15 14 14 14 14 14 12 12 11 11 11 10 9 7 8 8 11 13 14 12 12 11 11 11 11 12 12 12 13 14 14 13 12 11 11 11 10 11 10 10 10 9 9 8 9 9 9 9 9 10 9 8 8 8 8 8 8 9 9 9 9 9 10 9 9 9 9 8 7 6 6 6 6 6 6 6 5 8 13 12 13 13 14
13 15 15 16 12 12 13 13 13 13 11 10 8 9 10 9 10 10 13 14 13 13 14 13 12 12 12 12 12 12 12 13 13 13 12 11 11 11 11 12 11 10 10 10 10 9 9 9 9 8 9 10 9 9 8 8 8 8 9 9 9 10 10 10 10 9 9 9 8 8 6 7 7 6 6 5 5 5 5 5 4 4 7 14 14
13 14 16 16 15 13 10 11 13 14 13 11 9 11 12 13 13 13 14 14 15 14 14 14 13 13 13 13 13 13 12 12 14 14 14 13 12 12 12 10 11 10 11 11 10 10 11 11 11 10 10 9 8 8 8 7 8 9 9 9 11 12 13 12 12 10 9 8 7 6 6 5 5 5 5 4 4 4 5 4 4 4 4 6 12
13 13 14 16 16 16 13 11 11 12 11 11 11 12 13 13 13 13 14 14 14 14 13 14 13 13 13 14 14 13 13 12 13 13 14 12 12 11 12 12 11 11 11 11 11 11 11 11 10 9 10 10 8 8 8 7 7 7 7 10 11 11 11 12 12 10 8 7 6 5 4 4 4 4 3 3 4 4 4 4 4 4 4 3 5
12 13 15 15 15 14 15 14 9 11 13 13 10 11 11 11 11 11 11 11 12 12 12 12 13 12 13 13 13 13 14 14 12 15 12 13 12 11 12 11 11 11 10 10 11 10 11 10 9 8 9 10 9 8 7 6 5 6 6 8 6 7 7 7 8 8 7 6 5 4 3 4 3 3 2 3 4 4 4 4 4 4 4 4 4
11 13 13 14 13 13 14 14 13 11 11 11 11 11 11 11 11 10 11 11 12 12 11 11 11 12 12 13 13 13 14 13 14 12 13 13 14 12 11 10 12 10 9 11 10 11 10 11 11 8 7 8 8 8 9 9 6 5 5 6 6 3 4 4 4 6 6 5 4 4 4 4 4 3 3 3 3 4 4 4 4 4 4 5 4
8 8 11 13 12 12 11 13 11 13 13 11 10 12 12 13 13 12 12 12 11 10 12 12 12 12 13 12 12 12 14 14 14 12 12 12 13 13 11 11 11 11 11 11 11 11 11 11 11 11 10 8 8 7 9 10 8 7 6 7 2 1 5 4 2 3 2 3 5 5 5 5 4 4 3 3 3 3 3 4 4 5 5 5 5
8 7 9 10 10 13 12 12 12 12 11 10 12 10 9 9 10 11 12 11 10 11 10 12 13 12 12 12 14 13 14 12 12 13 12 12 13 13 13 12 12 11 10 11 11 12 12 12 12 11 12 11 9 7 9 10 11 11 9 3 3 4 5 2 3 2 3 5 4 5 6 5 5 5 4 3 4 4 4 4 4 5 6 6 5
9 9 8 9 9 8 9 9 10 9 11 13 12 10 11 10 10 12 11 13 14 14 15 14 12 13 13 10 10 12 13 11 10 13 13 12 13 14 13 12 12 11 10 10 11 11 12 12 13 12 13 13 11 11 9 9 11 13 15 12 7 6 4 1 1 1 5 4 2 4 6 7 6 5 4 4 5 4 4 4 5 5 6 6 6
3 3 5 4 5 6 6 7 9 11 11 13 14 10 11 11 14 13 13 15 16 15 12 8 7 7 8 10 12 12 12 12 11 12 12 12 12 12 13 13 12 12 10 11 11 12 12 13 11 13 12 11 12 13 13 9 8 11 13 14 13 11 8 6 5 3 5 4 3 4 5 6 6 6 6 5 5 5 4 5 5 6 6 6 6
2 2 4 4 4 6 6 6 6 7 8 10 13 12 11 10 11 13 12 16 14 13 10 11 8 6 7 9 10 11 13 13 10 10 10 12 11 11 12 12 13 13 10 11 13 12 11 10 11 13 12 11 11 13 13 12 9 7 9 12 13 13 13 12 11 8 6 5 3 4 5 7 7 6 6 5 6 6 6 5 5 5 5 6 5
1 4 5 5 6 7 6 4 5 6 8 10 10 13 13 13 13 11 12 12 15 11 8 7 7 8 11 8 8 11 9 11 11 10 12 11 11 10 12 13 13 13 11 13 14 14 15 14 13 14 14 13 13 13 12 12 10 8 8 11 11 11 11 11 11 11 10 8 9 7 6 5 4 6 5 6 7 6 6 6 5 6 6 6 5
5 3 1 3 5 6 5 4 8 8 9 10 9 12 14 14 14 15 17 13 10 9 9 9 9 10 13 13 13 11 13 12 11 11 13 15 12 13 11 14 15 13 11 14 14 15 15 15 17 15 14 14 12 12 15 12 11 11 10 9 10 10 10 10 11 11 11 12 10 6 4 6 7 5 5 5 7 7 6 6 6 7 6 6 5
10 9 8 5 4 6 6 8 8 7 8 9 8 10 12 14 15 16 18 18 14 10 9 11 10 10 12 12 12 11 14 15 14 14 18 17 15 12 13 14 13 11 12 14 15 15 14 15 14 13 15 16 13 14 13 13 12 12 12 11 11 12 12 11 11 11 11 9 9 11 10 10 11 11 7 6 6 7 7 7 6 7 6 6 5
Wind_Direction
180 172 163 163 168 161 164 161 155 154 153 154 154 152 151 151 150 151 148 147 148 148 150 153 152 150 148 147 143 140 140 138 138 136 130 125 120 118 116 116 116 119 118 120 122 123 120 119 118 109 104 103 95 92 93 85 76 86 94 100 98 95 95 92 89 86 86 87 90 92 89 89 89 91 91 87 82 65 29 16 333 106 92 87 86
169 173 161 164 164 161 164 162 157 156 154 156 156 155 155 153 153 155 151 150 150 148 150 151 149 148 148 147 145 144 144 144 142 138 133 127 126 122 117 117 116 113 114 113 113 115 118 115 117 113 104 101 104 108 100 90 89 85 88 93 100 100 98 95 93 92 89 89 91 92 91 88 86 88 88 87 86 55 28 16 346 75 75 75 76
156 165 162 164 158 162 167 163 160 157 155 157 158 159 159 155 155 157 156 153 153 151 152 152 150 149 150 150 150 148 146 145 141 135 130 131 123 121 119 116 114 114 114 116 114 114 113 111 110 110 108 108 107 99 82 86 92 85 87 95 98 99 95 90 83 79 85 92 91 92 91 88 87 89 88 86 82 62 34 36 58 69 77 74 70
155 165 163 157 159 164 167 163 163 158 156 158 160 162 162 158 157 158 159 158 157 156 158 157 154 153 154 156 153 149 148 146 142 136 136 130 120 120 121 114 116 115 116 114 113 113 111 110 107 108 108 106 99 93 93 93 93 91 90 98 102 100 91 87 84 78 72 71 104 126 106 102 99 93 93 93 93 84 71 77 80 81 96 94 83
154 164 162 163 165 168 166 163 164 160 157 158 160 161 163 162 157 158 161 160 160 161 160 160 160 157 158 155 152 150 149 145 139 140 141 132 120 117 115 118 118 116 109 106 112 113 111 109 104 100 98 102 95 97 97 96 94 102 99 96 106 97 94 90 85 81 73 57 327 194 95 94 95 93 94 92 88 75 62 63 57 59 64 78 93
156 161 161 166 168 166 167 164 164 160 158 157 157 161 162 162 155 154 158 162 163 163 162 164 161 158 155 150 145 142 145 137 141 141 141 135 129 123 121 117 115 121 115 114 109 111 112 115 110 105 102 102 106 101 97 94 96 104 108 108 103 94 93 92 89 86 89 92 256 89 97 100 96 101 98 94 93 96 94 95 90 78 69 82 90
154 163 163 168 167 166 168 164 165 162 159 157 158 160 162 161 162 153 156 161 164 165 162 161 157 153 149 142 140 141 143 143 140 139 138 139 130 124 120 115 113 99 119 119 115 110 111 115 113 111 110 108 101 93 90 93 99 106 111 108 102 94 92 91 94 99 151 199 81 88 91 92 95 101 109 110 108 108 108 91 80 73 66 35 1
155 163 164 168 169 159 167 165 167 163 160 158 158 159 160 161 159 159 153 159 161 161 156 156 152 149 146 144 144 144 147 143 141 141 141 141 136 128 123 118 113 115 108 112 114 116 114 113 116 118 113 110 103 93 89 91 101 107 110 110 104 98 89 88 86 77 283 94 85 77 94 104 110 105 115 110 107 98 88 79 80 84 64 29 5
156 165 164 166 167 157 166 167 167 164 161 159 158 158 159 160 161 165 155 155 156 154 156 152 153 149 146 143 147 146 144 142 142 141 138 132 133 129 129 125 122 119 132 129 121 118 120 121 122 120 117 111 103 93 90 93 100 109 110 108 105 97 92 88 89 191 187 96 110 103 100 100 100 105 112 98 88 82 72 81 113 90 68 36 10
158 165 165 168 165 158 166 165 168 164 163 160 159 158 159 161 163 167 162 151 153 153 156 151 150 151 151 152 147 150 151 144 141 143 137 135 131 134 130 140 142 134 135 141 129 127 130 128 127 122 114 111 103 95 93 97 102 113 109 97 95 95 92 94 100 290 87 103 89 98 51 339 94 97 96 92 83 84 71 42 41 41 62 54 41
158 164 168 172 161 157 162 166 170 165 163 161 160 159 159 161 163 167 166 147 153 150 154 158 151 152 153 151 147 152 148 150 150 144 147 155 149 120 150 163 146 134 140 149 129 130 133 132 129 123 113 112 100 100 95 99 106 116 118 104 98 99 96 108 234 119 92 101 108 95 96 288 87 59 84 95 103 102 100 100 107 116 123 94 53
161 165 166 174 145 159 162 169 172 166 165 163 161 158 160 159 161 163 165 153 157 156 152 164 166 156 150 156 160 146 143 137 128 132 139 141 141 136 151 157 155 151 142 158 146 135 135 134 133 129 121 111 102 94 94 98 107 116 122 118 96 97 88 30 271 102 118 112 90 44 85 202 64 92 95 108 119 126 129 130 158 144 110 90 83
162 166 167 166 161 160 165 170 170 166 167 162 162 159 159 161 160 162 163 161 157 155 148 135 122 119 152 159 167 147 144 141 145 155 162 151 177 157 168 158 157 153 153 161 156 152 140 138 136 132 128 120 107 98 94 95 107 122 126 127 99 89 82 324 155 134 117 107 100 181 103 105 135 31 79 146 137 147 149 157 127 148 97 92 94
165 168 167 167 166 162 166 169 167 168 167 164 161 159 161 161 161 161 163 161 161 156 146 137 135 130 137 131 142 139 144 148 149 146 131 137 149 157 184 167 168 156 155 161 160 161 160 142 136 133 131 127 117 105 96 98 101 103 96 86 81 78 95 207 351 142 122 126 78 28 332 17 55 9 342 104 186 174 41 147 180 98 107 49 91
166 167 166 168 161 168 166 169 168 169 168 165 161 160 163 163 162 160 163 164 163 159 152 147 151 149 138 149 135 131 138 125 145 127 127 139 149 171 165 158 169 158 154 166 163 157 158 157 140 136 134 136 128 115 99 93 90 88 86 82 78 65 333 203 193 139 163 155 176 188 335 290 25 345 330 256 291 286 264 176 217 157 172 204 51
167 166 166 169 165 169 169 168 171 172 170 165 163 162 163 164 162 161 162 164 165 161 158 157 157 153 162 170 151 149 145 74 132 136 144 141 147 178 158 161 163 165 160 166 164 162 163 167 163 157 140 136 138 130 119 97 90 86 85 85 78 61 28 326 175 207 194 203 184 243 242 301 9 333 323 294 285 270 266 280 250 272 208 244 212
166 170 169 168 170 172 172 174 172 174 170 165 165 164 165 165 166 163 162 164 166 166 165 160 163 159 174 184 164 157 143 91 94 147 149 139 152 174 148 155 166 175 165 175 164 166 168 170 163 170 149 145 146 142 135 119 100 95 92 90 80 71 41 324 157 212 343 67 315 300 301 307 3 330 326 329 307 286 285 285 291 283 263 257 237
169 172 171 170 173 173 176 175 173 177 174 167 167 168 168 168 168 168 164 163 166 169 170 163 164 163 173 172 143 155 130 108 101 120 132 145 145 162 140 159 172 161 185 163 169 171 171 173 156 168 175 157 154 152 145 131 116 106 108 101 100 85 67 310 355 204 72 24 254 233 257 36 341 327 321 319 302 295 286 277 276 278 281 286 287
172 175 174 173 175 176 179 177 175 180 179 177 174 172 171 170 171 168 166 163 165 171 169 170 167 165 154 168 142 139 126 118 116 115 117 132 149 147 156 168 173 170 182 176 169 178 186 137 144 156 179 171 191 169 150 127 135 131 123 117 109 98 102 262 259 332 276 243 264 265 5 5 327 316 316 313 308 300 296 292 283 281 288 276 261
173 180 176 179 177 180 181 180 182 183 179 182 179 173 173 172 173 169 168 167 168 170 168 156 164 171 154 167 151 144 156 142 134 133 128 131 147 165 133 140 138 163 169 173 162 178 184 139 138 168 176 174 152 184 131 141 145 148 145 128 121 184 220 258 342 291 281 274 298 274 40 337 321 308 303 298 295 294 290 287 287 288 280 280 282
179 185 181 181 183 184 182 184 186 185 182 183 181 177 171 173 173 173 173 173 169 168 167 162 160 167 160 164 155 178 182 192 168 190 135 151 138 137 148 137 88 116 170 167 194 186 181 193 173 182 193 168 160 164 141 142 151 158 155 133 165 222 261 303 312 283 276 280 256 263 36 315 302 298 290 287 284 282 283 287 290 286 282 278 277
182 186 188 186 184 188 185 189 189 188 183 183 184 181 171 177 179 177 179 175 171 165 167 179 173 177 167 163 187 188 192 188 194 199 192 178 151 152 152 144 110 90 78 169 194 173 183 199 200 198 201 189 165 204 189 176 144 134 124 158 213 261 259 265 273 274 280 269 268 15 347 299 286 280 279 278 278 277 278 279 281 282 280 279 278
185 188 189 190 187 186 185 190 193 191 187 184 184 184 176 182 185 182 183 182 176 176 178 182 185 185 185 187 195 194 194 189 196 187 203 189 190 155 157 163 137 110 112 95 96 101 165 198 196 205 179 178 190 222 225 213 166 136 158 209 257 251 267 274 267 265 266 279 281 257 279 284 283 281 278 274 271 273 273 275 273 272 276 275 275
190 190 188 189 189 189 188 188 192 193 191 188 186 182 179 184 189 186 187 188 184 185 185 182 185 190 188 194 196 195 189 200 178 138 146 182 175 161 176 197 177 159 135 161 132 109 128 105 117 138 173 205 222 223 228 219 228 227 238 245 245 246 254 262 265 266 268 269 266 270 273 276 279 281 278 273 269 268 268 270 270 269 268 269 269
189 188 190 192 191 191 187 189 186 188 192 189 191 186 184 189 190 191 193 191 191 192 194 187 187 190 193 198 202 194 199 198 195 199 207 204 206 202 206 218 219 215 160 227 209 187 205 215 207 211 227 219 223 222 227 230 235 237 242 251 252 256 255 252 255 260 260 255 254 245 261 265 268 271 272 270 269 266 266 266 268 269 267 262 262
184 193 193 191 195 192 189 189 182 181 191 187 185 188 188 189 190 192 192 195 195 198 200 192 190 194 194 200 201 204 203 200 197 201 201 202 197 198 197 205 209 213 209 217 216 217 219 224 224 227 229 232 235 236 240 253 250 240 238 238 249 251 251 259 261 259 259 258 254 215 248 255 259 261 265 264 263 264 264 265 267 266 264 262 259
190 197 195 194 192 197 193 186 185 180 187 187 187 180 192 193 191 189 196 196 197 201 204 199 194 195 199 200 205 207 205 204 203 204 205 204 203 204 204 206 207 209 211 214 215 217 224 224 224 224 231 233 235 241 244 245 252 258 261 262 264 265 266 265 261 256 256 259 257 205 242 256 260 263 265 266 263 262 260 261 261 263 262 260 258
191 197 198 195 193 198 196 187 180 183 179 183 186 190 193 196 192 183 198 200 198 201 206 204 198 198 202 204 206 205 207 207 205 206 208 211 211 210 209 209 211 212 211 212 213 218 221 226 227 228 232 235 241 244 247 246 247 250 254 257 261 261 261 262 262 261 261 260 260 226 216 248 255 260 262 261 263 260 258 258 260 258 256 256 256
199 201 198 199 198 199 199 191 182 182 185 177 188 195 195 194 191 192 202 183 200 205 207 203 204 203 202 206 204 209 210 211 208 207 208 211 211 213 215 213 210 213 213 215 217 218 220 223 224 227 230 238 241 241 245 248 250 249 252 258 258 259 260 257 256 254 257 260 257 238 202 229 248 252 255 259 259 261 261 260 261 261 261 259 257
203 200 199 199 200 202 202 198 188 177 181 186 188 187 192 195 193 194 201 172 203 208 205 205 206 204 203 203 205 212 211 210 208 210 210 213 215 216 220 219 214 213 215 220 218 222 224 224 229 231 234 237 243 243 247 249 248 249 252 258 257 258 259 257 256 258 255 254 250 248 196 216 234 247 252 255 256 259 260 260 260 260 261 261 259
204 201 200 199 200 204 204 197 197 182 179 183 179 194 189 196 199 195 198 194 204 206 207 209 207 206 205 201 207 212 214 211 208 207 211 213 216 219 221 218 218 217 220 224 223 225 228 232 230 232 236 239 243 245 244 247 249 254 253 254 259 262 260 260 260 258 259 259 262 262 231 197 219 233 243 248 253 255 256 256 257 258 259 259 259
207 206 203 202 202 204 204 202 198 188 189 187 176 191 197 198 201 200 200 203 205 207 209 210 209 209 206 204 207 209 215 216 214 211 215 215 218 220 221 222 223 223 225 228 228 227 232 236 238 241 244 245 248 248 245 250 254 255 254 257 258 258 259 260 261 260 260 261 257 259 251 225 203 220 230 239 244 248 252 253 255 257 257 258 259
211 211 207 206 205 202 205 204 202 197 195 192 190 187 190 193 199 199 200 202 205 209 211 211 210 209 208 207 208 209 209 215 213 215 215 218 219 221 224 223 224 226 229 232 235 235 235 237 239 240 244 244 248 249 250 253 256 258 260 261 263 265 264 263 262 259 259 254 260 259 256 250 243 204 217 229 235 242 247 251 254 256 257 260 260
207 206 208 208 207 205 205 205 203 205 200 196 198 195 192 190 191 197 201 201 207 211 215 213 212 213 211 210 210 210 210 212 215 212 214 217 221 222 224 224 226 226 228 231 233 234 236 236 239 239 240 243 243 245 248 252 251 256 262 266 266 267 268 265 263 260 257 254 248 256 262 257 248 251 225 214 227 234 241 248 252 254 257 259 261
211 208 209 210 206 209 204 207 195 204 199 202 197 191 191 191 191 199 204 208 212 215 216 216 213 214 214 214 213 212 212 213 213 215 214 216 220 222 223 226 225 225 225 227 229 231 234 235 231 234 239 240 242 244 246 250 256 259 256 255 261 263 262 264 265 266 261 264 266 256 248 250 251 253 247 255 214 219 231 239 246 251 254 258 261
214 213 213 210 210 208 201 211 202 200 198 206 209 201 197 193 194 199 209 211 216 219 219 216 215 215 215 217 215 215 213 213 214 215 217 216 219 221 221 221 221 222 222 223 223 228 228 231 232 234 238 240 241 244 245 250 250 253 260 263 261 261 262 266 267 262 259 260 265 253 248 248 249 247 255 258 267 245 211 227 238 247 251 257 259
213 213 213 209 209 208 198 210 209 209 211 198 199 206 208 204 204 202 211 215 218 221 221 218 215 215 215 217 216 215 214 214 214 216 218 219 219 221 220 216 219 220 219 218 219 222 225 227 231 230 235 244 241 242 248 249 252 256 262 262 262 263 263 266 268 268 266 263 258 253 250 251 247 246 251 253 259 261 215 211 228 237 248 252 255
214 214 213 211 211 210 207 209 211 209 213 209 207 206 206 201 210 214 218 223 222 222 220 215 212 213 215 217 217 215 215 215 215 215 218 220 220 220 221 219 219 219 219 217 219 218 220 223 227 227 229 236 241 240 240 244 253 260 263 263 262 261 265 266 267 267 262 258 256 254 252 253 248 246 245 251 252 255 262 206 212 230 239 245 247
216 212 214 216 208 203 203 200 210 215 214 209 205 216 216 215 220 220 223 225 227 225 224 221 217 215 217 215 214 216 215 218 216 216 218 218 220 220 219 216 216 217 218 218 220 218 216 219 223 224 223 229 233 234 241 249 254 258 259 261 264 265 268 266 268 262 252 254 259 259 260 256 257 247 251 245 246 252 248 264 247 232 225 220 238
215 216 216 219 217 210 192 198 197 206 213 216 204 214 218 221 223 223 227 225 227 227 225 224 220 218 215 216 216 217 213 213 216 215 216 218 219 219 218 214 214 212 212 213 215 216 214 214 218 221 225 227 232 240 242 245 255 263 271 270 264 264 263 261 259 254 253 255 254 253 248 242 239 240 235 237 243 244 248 248 246 244 253 209 212
215 217 216 217 219 220 208 186 191 191 194 200 206 208 212 215 220 220 222 223 224 226 226 226 224 222 216 214 214 215 217 213 215 214 216 215 217 217 216 215 213 210 209 211 211 215 216 215 217 217 222 224 227 226 234 240 257 274 268 269 268 257 252 246 252 251 246 246 243 238 231 233 232 232 216 223 234 237 248 245 246 249 246 263 211
207 217 219 217 217 216 221 222 186 192 197 190 190 196 202 207 208 216 219 222 221 221 225 222 223 222 219 216 215 214 212 213 213 218 219 218 216 215 213 212 209 210 209 208 209 213 213 213 211 216 214 221 230 216 212 187 236 250 284 290 282 265 246 239 238 237 237 233 232 219 215 225 231 216 207 223 223 231 235 240 241 247 255 253 263
202 209 220 224 220 219 220 219 220 201 197 199 189 198 202 206 212 220 220 227 229 227 224 220 217 217 217 215 214 212 212 216 211 205 213 219 221 219 217 213 211 203 202 211 211 211 211 208 203 203 210 215 227 222 205 189 239 230 250 296 282 298 159 203 209 222 212 224 211 208 207 224 214 209 214 209 218 216 223 232 238 245 251 253 258
188 184 211 215 218 219 218 219 214 218 216 199 204 209 209 210 216 227 231 231 232 228 230 228 224 216 216 213 213 215 217 222 216 206 204 209 213 218 220 219 215 203 206 212 212 212 211 208 204 209 214 221 210 220 207 201 210 234 255 225 269 344 284 185 214 188 211 220 209 206 188 193 193 202 202 220 233 231 215 216 230 241 242 246 248
187 189 202 203 212 216 217 215 223 221 223 220 210 210 201 205 213 220 230 239 240 240 234 232 227 225 227 223 225 219 220 215 211 210 199 203 210 213 216 220 217 207 204 213 215 211 209 212 207 205 210 222 227 212 210 207 212 225 239 224 211 227 229 59 306 181 153 159 181 173 172 188 187 184 206 236 235 229 224 223 235 243 244 245 242
184 194 200 204 203 201 208 211 224 227 226 223 223 220 212 210 215 222 221 225 234 232 233 236 236 232 231 231 226 224 222 215 205 209 205 201 210 211 213 213 214 210 202 211 217 214 212 212 210 212 217 216 228 238 229 201 216 224 233 240 270 300 337 136 297 221 175 191 197 205 204 204 189 190 224 236 218 219 217 240 246 248 248 245 247
216 167 193 208 219 215 201 205 222 234 234 235 229 217 224 229 224 224 232 237 239 239 236 228 216 230 238 232 231 225 218 216 209 204 202 195 206 207 211 213 214 213 209 210 214 217 217 214 210 214 219 216 213 234 240 222 208 229 230 237 249 258 266 280 267 292 270 157 174 170 180 184 199 225 239 238 217 217 236 242 243 246 248 248 250
88 165 187 173 215 229 206 203 216 226 228 230 233 226 224 225 230 229 227 236 238 245 238 236 223 210 219 224 230 230 225 220 218 214 206 201 201 204 205 208 212 213 207 210 216 217 218 212 206 213 213 214 211 224 230 231 197 215 214 229 236 244 251 254 254 263 284 284 205 185 190 209 237 254 255 230 219 242 257 251 240 245 249 249 252
86 170 154 158 209 225 210 202 228 233 237 228 228 231 228 230 234 233 238 237 240 239 228 228 223 218 224 215 199 222 218 218 211 213 219 209 201 205 209 214 214 219 213 221 221 219 218 221 215 211 209 212 216 223 227 229 221 214 196 219 227 232 237 239 244 238 239 246 257 241 244 219 238 247 230 231 250 253 257 253 250 253 256 260 256
2 341 67 149 195 206 197 219 240 244 243 238 228 228 231 231 233 235 239 243 238 235 230 229 223 225 230 231 231 221 226 224 216 210 218 219 209 209 213 215 215 216 212 221 221 217 214 218 223 219 212 213 216 218 222 225 228 227 216 211 209 220 228 234 230 228 235 235 251 250 237 247 256 237 243 248 244 252 251 244 243 245 248 252 249
24 14 352 328 277 267 259 254 256 241 237 237 230 229 228 236 240 239 239 240 239 234 230 232 228 226 232 232 228 225 230 229 225 218 220 220 216 207 209 215 217 214 214 217 219 220 213 215 218 214 215 212 213 219 219 221 225 227 221 217 217 213 210 212 215 216 216 223 232 248 254 256 259 274 259 253 258 254 251 249 248 247 252 245 242